User: anonymous   Login
Location: Anjeux
(47.8815°N, 6.2076°E)
Time: 14:54:20
(UTC+00:00)
Language:

Cosmos 1933 Rocket - Orbit

View from above orbital plane
View from above orbital plane
View from above satellite
View from above satellite

Ground track
Ground track

The orbit data is extracted from the following two-line orbital elements,

1 18959U 88020B   21132.19183217  .00000077  00000-0  63619-5 0  9995
2 18959  82.5403  19.1505 0018230 114.8820 245.4292 14.83477467791832
Epoch (UTC): 12 May 2021 04:36:14
Eccentricity: 0.0018230
inclination: 82.5403°
perigee height: 605 km
apogee height: 631 km
right ascension of ascending node: 19.1505°
argument of perigee: 114.8820°
revolutions per day: 14.83477467
mean anomaly at epoch: 245.4292°
orbit number at epoch: 79183

The dashed part of the orbit path shows where the satellite is in the earth's shadow,  

DLR